Location: *
(55.6049°S, 142.1985°W)
Time: 15:39:59
(UTC+00:00)

Cosmos 1603 - Pass Details

Date: 12 May 2021
Orbit: 832 x 858 km, 71.0° (Epoch: 17 June)

Event Time Altitude Azimuth Distance (km) Brightness Sun altitude
Exits shadow 15:18:08 13° 215° (SW) 2,294 5.6 -16.0°
Maximum altitude 15:23:21 83° 301° (WNW) 874 3.7 -15.3°
Drops below altitude 10° 15:29:06 10° 28° (NNE) 2,495 6.7 -14.5°
Sets 15:31:33 0° 28° (NNE) 3,428 7.5 -14.1°
